TimeEST,TemperatureF,Dew PointF,Humidity,Sea Level PressureIn,VisibilityMPH,Wind Direction,Wind SpeedMPH,Gust SpeedMPH,PrecipitationIn,Events,Conditions,WindDirDegrees,DateUTC
12:53 AM,28.0,21.9,78,30.12,10.0,Calm,Calm,-,N/A,,Clear,0,2013-03-04 05:53:00
1:53 AM,27.0,21.0,78,30.13,10.0,Calm,Calm,-,N/A,,Clear,0,2013-03-04 06:53:00
2:53 AM,26.1,21.0,81,30.14,10.0,Calm,Calm,-,N/A,,Clear,0,2013-03-04 07:53:00
3:53 AM,26.1,21.9,84,30.15,10.0,Calm,Calm,-,N/A,,Clear,0,2013-03-04 08:53:00
4:53 AM,25.0,23.0,92,30.15,10.0,Calm,Calm,-,N/A,,Clear,0,2013-03-04 09:53:00
5:53 AM,27.0,21.9,81,30.16,10.0,Calm,Calm,-,N/A,,Clear,0,2013-03-04 10:53:00
6:53 AM,28.0,19.9,72,30.19,10.0,Calm,Calm,-,N/A,,Clear,0,2013-03-04 11:53:00
7:53 AM,32.0,19.9,61,30.18,10.0,Calm,Calm,-,N/A,,Overcast,0,2013-03-04 12:53:00
8:53 AM,35.1,19.9,54,30.20,10.0,WSW,4.6,-,N/A,,Clear,240,2013-03-04 13:53:00
9:53 AM,39.9,19.9,45,30.20,10.0,Calm,Calm,-,N/A,,Clear,0,2013-03-04 14:53:00
10:53 AM,46.0,18.0,33,30.18,10.0,Calm,Calm,-,N/A,,Clear,0,2013-03-04 15:53:00
11:53 AM,48.9,15.1,26,30.16,10.0,Calm,Calm,-,N/A,,Clear,0,2013-03-04 16:53:00
12:53 PM,53.1,18.0,25,30.14,10.0,WSW,5.8,-,N/A,,Clear,250,2013-03-04 17:53:00
1:53 PM,54.0,19.0,25,30.10,10.0,Calm,Calm,-,N/A,,Clear,0,2013-03-04 18:53:00
2:53 PM,55.9,21.9,27,30.08,10.0,West,5.8,-,N/A,,Clear,270,2013-03-04 19:53:00
3:53 PM,57.0,24.1,28,30.06,10.0,Variable,3.5,-,N/A,,Clear,0,2013-03-04 20:53:00
4:53 PM,57.9,25.0,28,30.05,10.0,SSW,5.8,-,N/A,,Clear,200,2013-03-04 21:53:00
5:53 PM,57.9,26.1,30,30.05,10.0,SSW,6.9,-,N/A,,Clear,200,2013-03-04 22:53:00
6:53 PM,55.9,28.0,34,30.04,10.0,SSE,4.6,-,N/A,,Clear,150,2013-03-04 23:53:00
7:53 PM,55.0,28.0,35,30.03,10.0,SSE,5.8,-,N/A,,Clear,160,2013-03-05 00:53:00
8:53 PM,55.0,28.0,35,30.04,10.0,SW,6.9,-,N/A,,Clear,230,2013-03-05 01:53:00
9:53 PM,54.0,28.0,37,30.04,10.0,South,4.6,-,N/A,,Clear,180,2013-03-05 02:53:00
10:53 PM,53.1,28.9,40,30.04,10.0,SSE,3.5,-,N/A,,Clear,160,2013-03-05 03:53:00
11:53 PM,52.0,28.9,41,30.04,10.0,SSW,3.5,-,N/A,,Clear,210,2013-03-05 04:53:00